LEGION 1

Last updated on Thu Oct 30 2025 00:02:32 GMT+0000 (Coordinated Universal Time)

1 59625U 24081A 25302.46647273 .00006878 00000+0 34885-3 0 9992 2 59625 97.5247 17.4501 0003085 169.5060 190.6238 15.17252888 82561
UTC large
Height (km)
Speed (km/s)
/
Latitude / Longitude
Inclination (degrees)
Orbital Period (minutes)
Azimuth
Elevation
Range (km)
Doppler Factor

Next 0 passes for location: London (51.5072 / 0.1276)

Sorry there are no passes over London.